Location: Arclight Observatory
(36.5667°N, 87.3333°W)
Time: 05:04:06
(UTC-05:00)

Daily predictions for brighter satellites

Satellite Brightness Start Highest point End
(mag) Time Altitude Azimuth Time Altitude Azimuth Time Altitude Azimuth
Cosmos 2278 Rocket 4.4 00:15:23 10° NW 00:17:05 19° NW 00:17:05 19° NW
SL-16 R/B 4.4 00:49:33 22° N 00:49:33 22° N 00:51:36 10° N
CENTAUR R/B 4.0 00:59:56 10° NW 01:04:37 39° NW 01:04:37 39° NW
USA 215 4.4 01:15:48 37° NNW 01:15:48 37° NNW 01:19:48 10° NW
Cosmos 2369 Rocket 4.3 01:23:53 10° N 01:26:08 23° N 01:26:08 23° N
SL-16 R/B 4.2 02:01:55 24° ENE 02:02:49 25° ENE 02:07:43 10° NNE
Centaur D AC-29 4.2 02:51:23 21° SE 02:51:23 21° SE 02:57:37 10° ESE
Resurs 1-4 Rocket 3.0 02:50:43 10° NNE 02:54:29 44° NE 02:54:29 44° NE
Cosmos 1943 Rocket 4.3 02:51:59 10° NNW 02:53:10 17° NW 02:53:10 17° NW
Cosmos 1656 Rocket 4.4 02:57:33 10° NNW 03:01:50 50° N 03:01:50 50° N
CZ-2D R/B 2.6 03:04:33 10° NNE 03:08:45 56° NNE 03:08:45 56° NNE
Cosmos 2285 Rocket 4.0 03:15:11 73° ESE 03:15:16 73° ESE 03:21:38 10° NNE
ARIANE 5 R/B 2.9 03:12:54 10° NNE 03:17:13 61° NNE 03:17:13 61° NNE
ADEOS Rocket 4.0 03:15:32 10° N 03:18:58 29° NW 03:18:58 29° NW
Sich 1 3.9 03:27:50 10° N 03:31:37 47° ENE 03:31:37 47° ENE
Cosmos 1726 3.8 03:43:15 30° N 03:43:15 30° N 03:45:16 10° N
IRS-1D 4.2 03:39:35 10° N 03:43:46 44° NW 03:43:46 44° NW
ADEOS II 3.7 03:40:10 10° NE 03:44:41 29° E 03:48:03 15° SSE
SL-16 R/B 2.9 03:47:01 45° WNW 03:47:01 45° WNW 03:52:04 10° NNW
Cosmos 2123 Rocket 4.3 03:40:27 10° NNW 03:45:55 49° WNW 03:45:55 49° WNW
Cosmos 773 Rocket 4.5 03:48:34 45° SSE 03:49:46 55° ESE 03:54:56 10° NNE
BREEZE-M DEB (TANK) 4.4 03:49:16 18° NNW 03:51:09 28° NNE 03:57:09 10° E
Cosmos 1459 Rocket 4.3 03:49:26 31° SSE 03:52:22 62° E 03:58:20 10° NNE
UNKNOWN OBJECT B 3.5 03:48:50 10° N 03:51:57 51° N 03:51:57 51° N
Kakehashi 4.0 03:52:39 42° S 03:53:09 43° SSE 03:59:36 10° E
Cosmos 2228 Rocket 3.7 03:54:07 44° SE 03:55:00 52° E 03:59:20 10° NNE
OAO 1 4.3 03:54:49 73° SW 03:55:11 77° S 04:00:42 10° E
ADEOS 3.9 03:52:20 10° N 03:57:11 48° WNW 03:57:11 48° WNW
MOS 1 Rocket 4.3 03:54:06 10° N 03:56:57 31° NW 03:56:57 31° NW
Hubble Space Telescope 2.8 04:03:25 18° SE 04:03:25 18° SE 04:05:05 10° ESE
Cosmos 1633 Rocket 2.9 03:57:41 10° N 04:02:04 90° W 04:02:06 88° S
Meteor 2-10 4.1 04:13:06 42° SSW 04:15:06 75° W 04:20:47 10° N
Cosmos 2061 Rocket 4.0 04:13:51 25° S 04:17:50 89° E 04:24:18 10° N
Meteor 2-2 Rocket 4.3 04:16:26 36° SSW 04:18:58 75° W 04:25:01 10° N
COSMOS 2406 4.3 04:18:16 26° WNW 04:19:01 27° WNW 04:23:48 10° N
MOS 1-B 4.4 04:14:25 10° NNE 04:20:16 78° ESE 04:24:05 23° S
PSLV R/B 4.2 04:20:10 37° NNW 04:20:36 39° N 04:23:40 10° E
Cosmos 1833 Rocket 3.5 04:16:46 18° S 04:20:41 48° ESE 04:26:05 10° NNE
Cosmos 1328 Rocket 3.5 04:21:37 57° WSW 04:22:06 61° W 04:26:24 10° N
Tiangong 2 1.3 04:24:43 65° ESE 04:24:43 65° ESE 04:27:41 10° ENE
Cosmos 1300 3.9 04:33:03 26° WNW 04:33:03 26° WNW 04:35:43 10° NNW
Cosmos 2016 Rocket 3.9 04:28:24 17° S 04:33:14 87° W 04:39:22 10° N
PSLV R/B 4.1 04:29:58 10° NNE 04:34:14 58° E 04:37:46 14° S
Resurs 1-4 Rocket 3.8 04:32:13 10° NNW 04:35:12 15° WNW 04:35:33 15° WNW
Abrixas 2.9 04:39:29 34° NNW 04:40:16 50° NNE 04:42:49 10° ESE
Lacrosse 5 3.2 04:35:32 10° NNW 04:40:19 41° NE 04:45:05 10° ESE
Cosmos 192 4.4 04:37:19 21° SSW 04:40:35 81° ESE 04:45:34 10° NNE
USA 229 DEB 4.3 04:36:51 10° NW 04:43:11 34° WSW 04:49:36 10° S
USA 229 4.3 04:36:56 10° NW 04:43:17 34° WSW 04:49:44 10° S
Cosmos 2278 3.9 04:38:25 10° NNW 04:44:06 75° ENE 04:49:43 10° SSE
Cosmos 1933 Rocket 3.5 04:40:22 10° NNW 04:44:49 69° W 04:49:12 10° S
Shenzhou-11 Module 2.4 04:45:15 42° WNW 04:45:57 54° NNW 04:48:59 10° ENE
Cosmos 1725 Rocket 4.0 04:40:28 10° S 04:46:38 84° E 04:52:50 10° N
Cosmos 923 Rocket 3.9 04:43:24 23° SSW 04:46:41 75° WNW 04:51:56 10° NNE
Cosmos 1455 2.1 04:45:51 18° S 04:48:36 83° E 04:52:21 10° N
NOSS 3-1 (A) 4.1 04:40:54 10° NNW 04:48:45 87° WSW 04:57:18 10° SSE
CZ-2D R/B 4.1 04:47:24 10° NW 04:49:12 12° WNW 04:50:04 11° WNW
Cosmos 1802 Rocket 4.2 04:45:59 20° SSW 04:50:07 52° W 04:56:14 10° N
Cosmos 1697 Rocket 3.8 04:48:18 10° N 04:53:47 48° ENE 04:59:13 10° SE
Cosmos 1151 Rocket 3.3 04:51:42 26° SW 04:53:47 47° W 04:57:56 10° N
BREEZE-M DEB (TANK) 2.8 04:58:47 26° SSW 04:58:47 26° SSW 05:01:49 10° SSE
Okean O Rocket 1.5 04:54:24 10° N 04:58:49 81° WNW 05:03:09 10° SSW
OAO 2 Rocket 3.9 04:56:23 21° SW 04:59:11 43° SSE 05:03:54 10° E
IRS-1C Rocket 4.3 04:54:05 10° NNE 04:59:21 73° ESE 05:04:36 10° S
CZ-4B DEB 4.2 04:54:32 10° NNE 05:00:06 86° ESE 05:05:36 10° SSW
Cosmos 1680 Rocket 3.5 05:00:53 14° SSW 05:05:22 66° WNW 05:10:41 10° NNE
Cosmos 2082 Rocket 2.2 05:02:58 15° SW 05:07:37 64° WNW 05:13:13 10° NNE
Cosmos 2112 Rocket 4.0 05:07:07 11° SSW 05:12:15 67° WNW 05:17:36 10° NNE
Tsikada Rocket 4.0 05:06:29 10° N 05:12:48 78° W 05:19:10 10° S
USA 234 3.7 05:07:25 10° NE 05:13:53 59° SE 05:20:18 10° SSW
Cosmos 1869 3.5 05:10:25 10° S 05:14:21 75° E 05:18:20 10° N
NOSS 3-1 (C) 4.4 05:10:19 10° NW 05:17:41 45° WSW 05:25:39 10° S
Meteor PRIRODA 3.6 05:16:26 10° N 05:20:06 87° WNW 05:23:44 10° SSW
Meteor 2-3 Rocket 4.0 05:16:37 10° NNW 05:21:59 45° W 05:27:21 10° SSW
ADEOS II 3.0 05:19:46 10° N 05:24:19 31° WNW 05:28:52 10° SW
Meteor 1-31 Rocket 2.8 05:22:07 10° NNE 05:26:05 89° ESE 05:30:01 10° SSW
CZ-4B R/B 3.3 05:21:22 10° N 05:26:43 58° WNW 05:31:57 10° SSW
Landsat 4 3.9 05:28:01 10° S 05:31:37 47° W 05:35:15 10° NNW
CZ-4B R/B 3.6 05:28:32 10° N 05:32:20 81° WNW 05:35:59 10° SSW
Cosmos 1892 3.9 05:29:44 10° NW 05:32:44 22° W 05:35:45 10° SW
Cosmos 1900 4.4 05:27:50 10° SSW 05:32:51 78° WNW 05:37:59 10° NNE
COSMOS 2487 4.0 05:31:13 11° WSW 05:33:37 20° WNW 05:36:17 10° NNW
CZ-4B R/B 4.3 05:31:54 10° NNW 05:35:36 25° WNW 05:39:18 10° SW
Cosmos 2369 4.3 05:33:32 10° NW 05:38:36 35° WSW 05:43:39 10° SSW
Cosmos 482 Debris 4.3 05:38:34 10° WNW 05:41:26 52° SW 05:46:12 10° SE
Hubble Space Telescope 2.1 05:39:06 10° WSW 05:42:30 25° S 05:45:56 10° SE
Cosmos 1933 4.5 05:38:54 10° SSE 05:42:45 48° E 05:46:38 10° NNE
Feng Yun 1-1 Rocket 4.4 05:39:11 10° NNE 05:44:50 80° ESE 05:50:19 10° S
Cosmos 1825 2.1 05:41:45 10° NNW 05:45:32 68° W 05:49:18 10° S
Cosmos 1656 4.1 05:40:15 10° NW 05:45:33 41° WSW 05:50:49 10° S
Timation 2 Rocket 3.9 05:40:40 10° SSW 05:46:36 71° WNW 05:52:44 10° NNE
